Torna al catalogo

IUS R/B(1)

AttivoHEO
NORAD 15544·ROCKET BODY·🇺🇸 United States

Lanciato Jan 24, 1985 da Cape Canaveral Space Force Station

Loading…

Prossimi Passaggi (prossime 24 ore)

TLE

AggiornatoSource: Space-Track

Epoca: Sep 14, 2026, 08:58 UTC

1 15544U 85010C   26257.37362986  .00001055  00000-0  79411-3 0  9995
2 15544  27.9300 355.1307 6831669  25.5736 356.2867  2.83683327 74632

Traccia IUS R/B(1) in tempo reale con AllMySat

Download on the App Store